• In Deutschland
  • Länderverzeichnis
  • Für 7 Tage
  • Wassertemperatur
  • Satellitenkarten
  • Wetterkarte
  • Widgets
  • user-avatar
    Anmelden

    Stündliche Wetter San Juan

    Heute, 24 November, Freitag

    Zeit Temperatur Niederschläge Wind Luftdruck Luftfeuchtigkeit
    00:00 +24°C° 0 mm 6 m/S 704 mmHg 20%
    01:00 +23°C° 0 mm 5 m/S 704 mmHg 22%
    02:00 +22°C° 0 mm 5 m/S 704 mmHg 23%
    03:00 +22°C° 0 mm 5 m/S 704 mmHg 24%
    04:00 +21°C° 0 mm 4 m/S 704 mmHg 25%
    05:00 +21°C° 0 mm 5 m/S 704 mmHg 25%
    06:00 +22°C° 0 mm 5 m/S 704 mmHg 25%
    07:00 +22°C° 0 mm 5 m/S 705 mmHg 25%
    08:00 +24°C° 0 mm 6 m/S 705 mmHg 23%
    09:00 +26°C° 0 mm 6 m/S 705 mmHg 21%
    10:00 +27°C° 0 mm 6 m/S 705 mmHg 20%
    11:00 +28°C° 0 mm 6 m/S 704 mmHg 18%
    12:00 +29°C° 0 mm 6 m/S 704 mmHg 17%
    13:00 +30°C° 0 mm 6 m/S 703 mmHg 16%
    14:00 +30°C° 0 mm 6 m/S 703 mmHg 16%
    15:00 +30°C° 0 mm 6 m/S 703 mmHg 15%
    16:00 +32°C° 0 mm 6 m/S 703 mmHg 14%
    17:00 +29°C° 0 mm 5 m/S 704 mmHg 16%
    18:00 +28°C° 0 mm 5 m/S 704 mmHg 17%
    19:00 +27°C° 0 mm 4 m/S 705 mmHg 18%
    20:00 +27°C° 0 mm 3 m/S 705 mmHg 19%
    21:00 +26°C° 0 mm 3 m/S 706 mmHg 20%
    22:00 +25°C° 0 mm 2 m/S 707 mmHg 21%
    23:00 +25°C° 0 mm 2 m/S 707 mmHg 23%

    Morgen, 25 November, Samstag

    Zeit Temperatur Niederschläge Wind Luftdruck Luftfeuchtigkeit
    00:00 +24°C° 0 mm 1 m/S 706 mmHg 25%
    01:00 +23°C° 0 mm 1 m/S 706 mmHg 26%
    02:00 +23°C° 0 mm 1 m/S 706 mmHg 27%
    03:00 +23°C° 0 mm 1 m/S 706 mmHg 28%
    04:00 +22°C° 0 mm 1 m/S 706 mmHg 29%
    05:00 +24°C° 0 mm 1 m/S 707 mmHg 27%
    06:00 +25°C° 0 mm 1 m/S 707 mmHg 25%
    07:00 +27°C° 0 mm 1 m/S 708 mmHg 23%
    08:00 +28°C° 0 mm 1 m/S 708 mmHg 21%
    09:00 +29°C° 0 mm 2 m/S 708 mmHg 19%
    10:00 +30°C° 0 mm 2 m/S 707 mmHg 17%
    11:00 +31°C° 0 mm 2 m/S 707 mmHg 16%
    12:00 +32°C° 0 mm 2 m/S 706 mmHg 15%
    13:00 +34°C° 0 mm 3 m/S 705 mmHg 14%
    14:00 +34°C° 0 mm 3 m/S 705 mmHg 14%
    15:00 +34°C° 0 mm 3 m/S 704 mmHg 14%
    16:00 +35°C° 0 mm 3 m/S 704 mmHg 13%
    17:00 +34°C° 0 mm 3 m/S 704 mmHg 15%
    18:00 +33°C° 0 mm 3 m/S 705 mmHg 16%
    19:00 +31°C° 0 mm 2 m/S 705 mmHg 17%
    20:00 +30°C° 0 mm 3 m/S 705 mmHg 20%
    21:00 +29°C° 0 mm 3 m/S 706 mmHg 23%
    22:00 +28°C° 0 mm 4 m/S 706 mmHg 26%
    23:00 +28°C° 0 mm 3 m/S 705 mmHg 30%

    übermorgen, 26 November, Sonntag

    Zeit Temperatur Niederschläge Wind Luftdruck Luftfeuchtigkeit
    00:00 +27°C° 0 mm 3 m/S 705 mmHg 34%
    01:00 +26°C° 0 mm 3 m/S 704 mmHg 38%
    02:00 +26°C° 0 mm 3 m/S 704 mmHg 38%
    03:00 +25°C° 0 mm 3 m/S 704 mmHg 39%
    04:00 +25°C° 0 mm 3 m/S 703 mmHg 40%
    05:00 +26°C° 0 mm 3 m/S 703 mmHg 36%
    06:00 +27°C° 0 mm 4 m/S 703 mmHg 32%
    07:00 +29°C° 0 mm 4 m/S 704 mmHg 28%
    08:00 +30°C° 0 mm 4 m/S 703 mmHg 24%
    09:00 +33°C° 0 mm 4 m/S 703 mmHg 21%
    10:00 +34°C° 0 mm 4 m/S 702 mmHg 18%
    11:00 +35°C° 0 mm 4 m/S 702 mmHg 15%
    12:00 +36°C° 0 mm 4 m/S 701 mmHg 13%
    13:00 +37°C° 0 mm 3 m/S 700 mmHg 10%
    14:00 +37°C° 0 mm 3 m/S 700 mmHg 10%
    15:00 +37°C° 0 mm 3 m/S 700 mmHg 10%
    16:00 +37°C° 0 mm 3 m/S 699 mmHg 10%
    17:00 +36°C° 0 mm 3 m/S 700 mmHg 12%
    18:00 +35°C° 0 mm 3 m/S 700 mmHg 14%
    19:00 +34°C° 0 mm 3 m/S 701 mmHg 16%
    20:00 +33°C° 0 mm 3 m/S 702 mmHg 18%
    21:00 +31°C° 0 mm 3 m/S 702 mmHg 21%
    22:00 +30°C° 0 mm 3 m/S 703 mmHg 24%
    23:00 +29°C° 0 mm 3 m/S 703 mmHg 26%

    27 November, Montag

    Zeit Temperatur Niederschläge Wind Luftdruck Luftfeuchtigkeit
    00:00 +29°C° 0 mm 4 m/S 704 mmHg 28%
    01:00 +28°C° 0 mm 4 m/S 704 mmHg 30%
    02:00 +27°C° 0,3 mm 7 m/S 705 mmHg 29%
    03:00 +24°C° 0,3 mm 10 m/S 706 mmHg 28%
    04:00 +23°C° 0,3 mm 13 m/S 708 mmHg 27%
    05:00 +23°C° 0 mm 12 m/S 709 mmHg 27%
    06:00 +22°C° 0 mm 12 m/S 710 mmHg 28%
    07:00 +22°C° 0 mm 11 m/S 711 mmHg 28%
    08:00 +22°C° 0 mm 10 m/S 711 mmHg 28%
    09:00 +23°C° 0 mm 9 m/S 711 mmHg 28%
    10:00 +23°C° 0 mm 8 m/S 711 mmHg 27%
    11:00 +24°C° 0 mm 7 m/S 710 mmHg 25%
    12:00 +26°C° 0 mm 7 m/S 709 mmHg 23%
    13:00 +27°C° 0 mm 6 m/S 709 mmHg 21%
    14:00 +27°C° 0 mm 6 m/S 708 mmHg 20%
    15:00 +27°C° 0 mm 5 m/S 708 mmHg 19%
    16:00 +27°C° 0 mm 5 m/S 707 mmHg 19%
    17:00 +26°C° 0 mm 4 m/S 708 mmHg 20%
    18:00 +25°C° 0 mm 4 m/S 709 mmHg 21%
    19:00 +25°C° 0 mm 3 m/S 709 mmHg 22%
    20:00 +24°C° 0 mm 3 m/S 709 mmHg 22%
    21:00 +22°C° 0 mm 3 m/S 710 mmHg 23%
    22:00 +23°C° 0 mm 2 m/S 710 mmHg 24%
    23:00 +21°C° 0 mm 2 m/S 709 mmHg 25%

    28 November, Dienstag

    Zeit Temperatur Niederschläge Wind Luftdruck Luftfeuchtigkeit
    00:00 +21°C° 0 mm 2 m/S 709 mmHg 26%
    01:00 +20°C° 0 mm 2 m/S 708 mmHg 28%
    02:00 +21°C° 0 mm 1 m/S 708 mmHg 29%
    03:00 +20°C° 0 mm 1 m/S 708 mmHg 30%
    04:00 +19°C° 0 mm 1 m/S 708 mmHg 32%
    05:00 +21°C° 0 mm 1 m/S 708 mmHg 30%
    06:00 +22°C° 0 mm 1 m/S 708 mmHg 28%
    07:00 +23°C° 0 mm 1 m/S 708 mmHg 26%
    08:00 +25°C° 0 mm 2 m/S 708 mmHg 25%
    09:00 +26°C° 0 mm 2 m/S 708 mmHg 24%
    10:00 +28°C° 0 mm 2 m/S 707 mmHg 23%
    11:00 +29°C° 0 mm 3 m/S 707 mmHg 21%
    12:00 +30°C° 0 mm 3 m/S 706 mmHg 19%
    13:00 +33°C° 0 mm 3 m/S 705 mmHg 18%
    14:00 +33°C° 0 mm 3 m/S 705 mmHg 17%
    15:00 +33°C° 0 mm 3 m/S 705 mmHg 17%
    16:00 +34°C° 0 mm 3 m/S 704 mmHg 16%
    17:00 +32°C° 0 mm 2 m/S 705 mmHg 18%
    18:00 +30°C° 0 mm 2 m/S 705 mmHg 20%
    19:00 +29°C° 0 mm 2 m/S 706 mmHg 21%
    20:00 +29°C° 0 mm 2 m/S 706 mmHg 23%
    21:00 +28°C° 0 mm 2 m/S 706 mmHg 25%
    22:00 +27°C° 0 mm 2 m/S 706 mmHg 27%
    23:00 +26°C° 0 mm 2 m/S 706 mmHg 29%

    29 November, Mittwoch

    Zeit Temperatur Niederschläge Wind Luftdruck Luftfeuchtigkeit
    00:00 +26°C° 0 mm 2 m/S 705 mmHg 31%
    01:00 +25°C° 0 mm 2 m/S 705 mmHg 33%
    02:00 +25°C° 0 mm 2 m/S 704 mmHg 35%
    03:00 +24°C° 0 mm 2 m/S 704 mmHg 36%
    04:00 +24°C° 0 mm 2 m/S 704 mmHg 38%
    05:00 +25°C° 0 mm 2 m/S 705 mmHg 35%
    06:00 +27°C° 0 mm 2 m/S 705 mmHg 32%
    07:00 +28°C° 0 mm 2 m/S 705 mmHg 29%
    08:00 +29°C° 0 mm 2 m/S 705 mmHg 25%
    09:00 +31°C° 0 mm 2 m/S 705 mmHg 22%
    10:00 +32°C° 0 mm 2 m/S 704 mmHg 18%
    11:00 +34°C° 0 mm 3 m/S 703 mmHg 17%
    12:00 +35°C° 0 mm 3 m/S 703 mmHg 15%
    13:00 +36°C° 0 mm 3 m/S 702 mmHg 13%
    14:00 +36°C° 0 mm 4 m/S 702 mmHg 13%
    15:00 +36°C° 0 mm 4 m/S 702 mmHg 13%
    16:00 +37°C° 0 mm 4 m/S 701 mmHg 13%
    17:00 +35°C° 0,1 mm 4 m/S 702 mmHg 15%
    18:00 +34°C° 0,1 mm 4 m/S 702 mmHg 17%
    19:00 +33°C° 0,1 mm 4 m/S 703 mmHg 18%
    20:00 +32°C° 0 mm 4 m/S 703 mmHg 21%
    21:00 +30°C° 0 mm 4 m/S 703 mmHg 23%
    22:00 +29°C° 0 mm 4 m/S 703 mmHg 26%
    23:00 +29°C° 0 mm 4 m/S 703 mmHg 30%
    Mehr zeigen